Current weather by "City, St" or "zip code"  
 

Current Conditions: Boston, Logan International Airport, MA

Mostly Cloudy


60.0 F

Last Updated on Sep 22 2020, 10:54 pm EDT
Humidity: 44%
Wind Speed: NW 18.4 G 25.3 mph
Barometer 29.74 in
Dewpoint: 37.9 F
Visibility: 10.00 mi
Precip: --
Heat Index: NA
Wind Chill: 57 F
Current conditions at:

Boston, Logan International Airport, MA (KBOS)

Lat: 42.36056 Lon: 71.01056

Local Radar Image active severe weather and emergency alerts image image weather storm and storm spotter reports image weather observation monitoring service image
Local
Radar
Active
Alerts
Storm Reports Obs
Monitoring

Sign-up For Email & Text Message Weather Alert Notification Services



Advertise Here

Observation History for Boston, Logan International Airport, MA


Time Wind
(mph)
Vis
(mi)
Weather Precip (in) Temperature (F) Relative
Humidity
Wind
Chill
(F)
Heat
Index
(F)
Pressure
Air Dwpt altimeter
(in)
sea level
(mb)
Rmks
10:54 pm EDT NW 18.4 G 25.3 10.00 Mostly Cloudy -- 60.0 37.9 44% 57 NA 29.74 1007.2
9:54 pm EDT NW 17.3 10.00 Mostly Cloudy -- 60.0 37.0 42% 57 NA 29.75 1007.3
8:54 pm EDT NW 16.1 G 26.5 10.00 Mostly Cloudy -- 61.0 35.1 38% 59 NA 29.76 1007.6
7:54 pm EDT NW 15.0 G 20.7 10.00 Mostly Cloudy -- 61.0 30.9 32% 59 NA 29.77 1008.0
6:54 pm EDT NW 12.7 10.00 Mostly Cloudy -- 63.0 26.1 25% 62 NA 29.78 1008.3
5:54 pm EDT NW 13.8 G 24.2 10.00 Overcast -- 64.0 28.0 26% NA NA 29.79 1008.8
4:54 pm EDT NW 13.8 G 24.2 10.00 Overcast -- 65.0 27.0 24% NA NA 29.81 1009.3
3:54 pm EDT NW 13.8 10.00 Overcast -- 65.0 30.0 27% NA NA 29.82 1009.7
2:54 pm EDT N 13.8 10.00 Overcast -- 64.0 30.0 28% NA NA 29.87 1011.4
1:54 pm EDT N 17.3 G 25.3 10.00 Mostly Cloudy -- 63.0 28.9 28% 61 NA 29.92 1013.2
12:54 pm EDT N 18.4 10.00 Mostly Cloudy -- 62.0 28.9 29% 60 NA 29.98 1015.2
11:54 am EDT N 15.0 G 20.7 10.00 Overcast -- 60.0 33.1 36% 57 NA 30.02 1016.6
10:54 am EDT NW 12.7 G 19.6 10.00 Overcast -- 56.0 32.0 40% 53 NA 30.07 1018.1
9:54 am EDT N 12.7 G 23.0 10.00 Overcast -- 54.0 32.0 43% 50 NA 30.10 1019.1
8:54 am EDT NW 12.7 10.00 Overcast -- 51.0 30.9 46% 46 NA 30.13 1020.3
7:54 am EDT NW 12.7 10.00 Mostly Cloudy -- 48.0 32.0 54% 43 NA 30.16 1021.1
6:54 am EDT NW 12.7 10.00 Mostly Cloudy -- 45.0 32.0 61% 39 NA 30.18 1021.8
5:54 am EDT NW 9.2 10.00 A Few Clouds -- 46.0 30.9 56% 41 NA 30.19 1022.3
4:54 am EDT NW 12.7 10.00 A Few Clouds -- 46.0 30.9 56% 40 NA 30.22 1023.2
3:54 am EDT NW 13.8 10.00 A Few Clouds -- 47.0 30.9 54% 41 NA 30.24 1024.1
2:54 am EDT NW 8.1 10.00 Fair -- 47.0 30.9 54% 43 NA 30.28 1025.3
1:54 am EDT NW 6.9 10.00 A Few Clouds -- 48.0 32.0 54% 45 NA 30.31 1026.2
12:54 am EDT NW 8.1 10.00 A Few Clouds -- 48.0 33.1 56% 44 NA 30.33 1027.1
11:54 pm EDT NW 8.1 10.00 Fair -- 50.0 32.0 50% 47 NA 30.37 1028.3

Regional Weather Observation


Laurence G Hanscom Field Airport, MA (KBED)

Fair
59.0 F

East Milton, MA (KMQE)

NULL
56.0 F

Nashua - Boire Field Airport, NH (KASH)

Fair
59.0 F

Norwood, Norwood Memorial Airport, MA (KOWD)

Fair
58.0 F

Manchester Airport, NH (KMHT)

Mostly Cloudy
60.0 F

Fitchburg, Fitchburg Municipal Airport, MA (KFIT)

Fair
57.0 F